Location: Brahman Valley
(40.6513°N, 111.8855°W)
Time: 13:19:18
(UTC+00:00)

Explorer 7 - All Passes

Search period start: 13 May 2021 00:00
Search period end: 23 May 2021 00:00
Orbit: 484 x 677 km, 50.3° (Epoch: 13 May)

Date Brightness Start Highest point End Pass type
(mag) Time Alt. Az. Time Alt. Az. Time Alt. Az.
13 May - 01:15:16 10° WNW 01:18:59 47° SW 01:22:52 10° SE daylight
13 May - 16:57:03 10° S 16:59:30 16° SE 17:01:55 10° E daylight
13 May - 18:35:45 10° WSW 18:39:35 75° NNW 18:43:20 10° NE daylight
13 May - 20:17:26 10° WNW 20:20:28 23° NNW 20:23:30 10° NE daylight
13 May - 21:59:02 10° NW 22:01:52 20° N 22:04:45 10° ENE daylight
13 May - 23:39:17 10° NW 23:42:58 48° NNE 23:46:47 10° ESE daylight
14 May - 01:19:57 10° WNW 01:23:17 28° SW 01:26:45 10° SSE daylight
14 May - 17:00:24 10° SSW 17:03:44 27° SE 17:06:59 10° ENE daylight
14 May - 18:40:18 10° WSW 18:44:02 48° NNW 18:47:41 10° NE daylight
14 May - 20:22:17 10° WNW 20:25:07 20° N 20:27:57 10° NE daylight
14 May - 22:03:29 10° NW 22:06:32 23° NNE 22:09:37 10° ENE daylight
14 May - 23:43:38 10° NW 23:47:25 74° NNE 23:51:21 10° ESE daylight
15 May - 01:24:58 10° W 01:27:31 17° SW 01:30:09 10° S daylight
15 May - 17:04:16 10° SSW 17:08:02 45° SE 17:11:41 10° ENE daylight
15 May - 18:45:01 10° W 18:48:33 34° NNW 18:52:00 10° NE daylight
15 May - 20:27:04 10° NW 20:29:48 19° N 20:32:31 10° NE daylight
15 May - 22:07:51 10° NW 22:11:08 28° NNE 22:14:28 10° E daylight
15 May - 23:48:03 10° WNW 23:51:50 69° SW 23:55:43 10° SE daylight
16 May - 15:31:19 10° SSE 15:32:27 11° SE 15:33:34 10° ESE daylight
16 May - 17:08:27 10° SW 17:12:23 77° SE 17:16:11 10° ENE daylight
16 May - 18:49:50 10° WNW 18:53:08 26° NNW 18:56:20 10° NE daylight
16 May - 20:31:44 10° NW 20:34:29 19° N 20:37:13 10° NE daylight
16 May - 22:12:11 10° NW 22:15:42 36° NNE 22:19:16 10° E daylight
16 May - 23:52:35 10° WNW 23:56:09 40° SW 23:59:50 10° SSE daylight
17 May - 15:33:46 10° S 15:36:39 19° SE 15:39:26 10° E daylight
17 May - 17:12:52 10° WSW 17:16:48 67° NNW 17:20:34 10° NE daylight
17 May - 18:54:42 10° WNW 18:57:44 22° NNW 19:00:43 10° NE daylight
17 May - 20:36:16 10° NW 20:39:09 20° N 20:42:01 10° ENE daylight
17 May - 22:16:31 10° NW 22:20:12 53° NNE 22:23:57 10° ESE daylight
17 May - 23:57:19 10° W 00:00:26 24° SW 00:03:37 10° S daylight
18 May - 15:37:17 10° SSW 15:40:53 31° SE 15:44:21 10° ENE daylight
18 May - 17:17:28 10° W 17:21:15 44° NNW 17:24:54 10° NE daylight
18 May - 18:59:33 10° NW 19:02:23 19° N 19:05:11 10° NE daylight
18 May - 20:40:42 10° NW 20:43:47 23° NNE 20:46:52 10° ENE daylight
18 May - 22:20:52 10° NW 22:24:38 83° NNE 22:28:28 10° ESE daylight
19 May - 00:02:33 10° W 00:04:39 14° SW 00:06:46 10° SSW daylight
19 May - 15:41:14 10° SW 15:45:12 53° SE 15:48:58 10° ENE daylight
19 May - 17:22:13 10° W 17:25:47 32° NNW 17:29:14 10° NE daylight
19 May - 19:04:18 10° NW 19:07:03 19° N 19:09:47 10° NE daylight
19 May - 20:45:02 10° NW 20:48:23 29° NNE 20:51:43 10° E daylight
19 May - 22:25:18 10° WNW 22:29:00 60° SW 22:32:47 10° SE daylight
20 May - 14:07:30 10° SSE 14:09:32 13° SE 14:11:31 10° E daylight
20 May - 15:45:29 10° SW 15:49:33 87° SE 15:53:25 10° ENE daylight
20 May - 17:27:02 10° WNW 17:30:21 25° NNW 17:33:34 10° NE daylight
20 May - 19:08:56 10° NW 19:11:44 19° N 19:14:30 10° NE daylight
20 May - 20:49:22 10° NW 20:52:55 39° NNE 20:56:29 10° E daylight
20 May - 22:29:52 10° WNW 22:33:18 35° SW 22:36:48 10° SSE daylight
21 May - 14:10:28 10° S 14:13:44 22° SE 14:16:53 10° E daylight
21 May - 15:49:57 10° WSW 15:53:58 61° NNW 15:57:48 10° NE daylight
21 May - 17:31:54 10° WNW 17:34:58 22° NNW 17:37:58 10° NE daylight
21 May - 19:13:26 10° NW 19:16:23 21° N 19:19:18 10° ENE daylight
21 May - 20:53:41 10° NW 20:57:23 58° NNE 21:01:07 10° ESE daylight
21 May - 22:34:42 10° W 22:37:33 21° SW 22:40:26 10° S daylight
22 May - 14:14:08 10° SSW 14:18:00 37° SE 14:21:40 10° ENE daylight
22 May - 15:54:35 10° W 15:58:26 41° NNW 16:02:07 10° NE daylight
22 May - 17:36:43 10° NW 17:39:37 20° N 17:42:27 10° NE daylight
22 May - 19:17:50 10° NW 19:21:01 25° NNE 19:24:09 10° ENE daylight
22 May - 20:58:03 10° WNW 21:01:48 87° SW 21:05:35 10° SE daylight
22 May - 22:40:15 10° WSW 22:41:44 12° SW 22:43:14 10° SSW daylight
